NOAA 16 DEB

Satellite information

Favourite Embed

Satellite Type and Status

DEBRISIN ORBIT

Key statistics

Satellite NOAA 16 DEB at a glance.

Uptime

9215

Days in orbit

Revolutions

≈ 14.3

Per day

Orbit

SSO

Sun Synchronous Orbit

Inclination

98.7

Latest

Satellite identification and parameters

Extended collection of information and parameters for NOAA 16 DEB.

Object identification

Identified? True

Debris? True

Object name: NOAA 16 DEB

International designator: 2000-055HQ

Object number (NORAD): 41347

Object ID (CCSDS): 41347

Country: UNITED STATES OF AMERICA (US)

Current information (Y/N): Y

RCS size: SMALL

Orbital parameters

Period: 100.495 minutes

Inclination: 98.7108 deg

SMA: 7160.179 km

Apoapsis: 797.076 km

Periapsis: 767.013 km

RAAN: 55.5566 deg

Eccentricy: 0.00209933

Argument of periapsis: 195.0477 deg

Mean anomaly: 165.0084 deg

Mean motion: 14.32903422 rev/day

Mean motion (dot): 0.00009592 rev/day2

B* drag term: 0.003514808 1/REarth

Two-line elements (TLE)

Creation date: Dec. 10, 2025, 10:40 a.m.

Reference frame: TEME

Reference center: EARTH

Epoch: Dec. 10, 2025, 3:38 a.m. UTC

TLE line 0: 0 NOAA 16 DEB

TLE line 1: 1 41347U 00055HQ 25344.15182805 .00009592 00000-0 35148-2 0 9995

TLE line 2: 2 41347 98.7108 55.5566 0020993 195.0477 165.0084 14.32903422510136

Live tracking on map

Real-time ground track for satellite NOAA 16 DEB.

In-orbit conjunctions

A list of the most updated potential collisions computed for object NOAA 16 DEB.

Target Orbit TCA Probability of collision Miss distance Type
DMSP 5D-2 F9 (USA 29) SSO 2025-11-08 21:04:19 0.0001061662 382.0 (m) PAYLOAD
IRIDIUM 33 DEB LEO 2025-05-07 07:27:16 0.0001145688 318.0 (m) DEBRIS
FEDSAT SSO 2025-01-18 16:48:28 0.000113056 58.0 (m) PAYLOAD

Associated space launch

The NOAA K, L and M POES satellites begin the fifth generation of improved environmental monitoring in support of NOAA missions. The instrument payload has significant improvements and additions/deletions. The instrument changes have effected the spacecraft subsystems and data formats.

NOAA 16 DEB was lifted into orbit during the mission ‘Titan II SLV | NOAA 16’, on board a Titan II SLV space rocket.

The launch took place on Sept. 21, 2000, 10:22 a.m. from Space Launch Complex 4W.

For more information about the launch, click the button.

Launch to space Titan II SLV | NOAA 16
Titan II SLV | NOAA 16

Agency: N/A

Status: Launch Successful

Launch date: Sept. 21, 2000, 10:22 a.m. UTC

Rocket: Titan II SLV

Launch pad: Space Launch Complex 4W

Location: Vandenberg SFB, CA, USA

...

Latest news about this satellite

There are no fresh news available about this satellite. Check back as we update our databases every day.


Newsletter sign-up

Weekly statistics, charts and insights to help you stay on top of the space industry.